Regional Weather Roundup
Issued by NWS

Home | Current Version | Previous Version | Graphics & Text | Print | Product List | Glossary On
Versions: 1 2 3 4 5 6 7 8 9 10 11 12 13 14 15 16 17 18 19 20 21 22 23 24 25 26 27 28 29 30 31 32 33 34 35 36 37 38 39 40 41 42 43 44 45 46 47 48 49 50
852
ASUS44 KMEG 282310
RWRTN
TENNESSEE HOURLY STATE WEATHER ROUNDUP
NATIONAL WEATHER SERVICE MEMPHIS TN
600 PM CDT WED JUN 28 2017

TNZ002-004-019-021-049-052-054-088>092-290000-
WEST TENNESSEE

CITY           SKY/WX    TMP DP  RH WIND       PRES   REMARKS
MEMPHIS INTL   PTSUNNY   86  63  45 S9        29.97F
NWS MEMPHIS      N/A     86 N/A N/A MISG        N/A
JACKSON        MOSUNNY   86  64  47 S8        29.99F
SOMERVILLE     SUNNY     84  66  54 S6G12     29.98S
COVINGTON      SUNNY     86  64  48 S7        29.97F
UNION CITY     SUNNY     86  64  48 S8G16     29.96F
BOLIVAR        MOSUNNY   86  63  45 SE8       29.99S
HUNTINGDON     MOSUNNY   84  64  51 S9        29.99F
LEXINGTON      SUNNY     84  63  48 S6        29.99F
SELMER         MOSUNNY   86  64  48 SE9       30.00S
SAVANNAH       MOSUNNY   86  64  48 S7        29.99F
$$

TNZ008-025-027-028-033-062-065-066-290000-
NORTH MIDDLE TENNESSEE

CITY           SKY/WX    TMP DP  RH WIND       PRES   REMARKS
NASHVILLE      MOSUNNY   87  55  33 S10       30.04F
PORTLAND       SUNNY     82  59  44 SE7       30.03F
CLARKSVILLE    PTSUNNY   84  62  47 S7        30.01F
SMYRNA         SUNNY     85  60  42 S6        30.05S
COOKEVILLE     SUNNY     82  54  36 CALM      30.07F
GALLATIN       SUNNY     86  57  37 E6        30.06S
CROSSVILLE     SUNNY     78  48  34 SW3       30.13F
$$

TNZ061-075-076-078-094-096-097-290000-
SOUTH MIDDLE TENNESSEE

CITY           SKY/WX    TMP DP  RH WIND       PRES   REMARKS
FAYETTEVILLE   SUNNY     84  61  45 S10       30.05F
TULLAHOMA        N/A     82  55  39 SE8       30.08S
WINCHESTER     SUNNY     84  61  45 SE9       30.07F
MCMINNVILLE    SUNNY     86  59  39 VRB3      30.08S
COLUMBIA       MOSUNNY   84  63  48 SE6       30.02S
SHELBYVILLE    SUNNY     82  61  47 SE6       30.05F
$$

TNZ017-018-042-046-047-290000-
NORTHEAST TENNESSEE

CITY           SKY/WX    TMP DP  RH WIND       PRES   REMARKS
TRI CITIES     MOSUNNY   84  54  35 CALM      30.12F
ELIZABETHTON   SUNNY     82  54  36 CALM      30.13S
$$

TNZ012-013-036-069-073-074-290000-
CENTRAL EAST TENNESSEE

CITY           SKY/WX    TMP DP  RH WIND       PRES   REMARKS
KNOXVILLE      MOSUNNY   83  56  39 SW8       30.07F
OAK RIDGE      SUNNY     85  52  32 VRB5      30.09F
DOWNTOWN KNOXV SUNNY     84  61  45 SW5       30.07S
GATLINBURG     SUNNY     82  55  39 CALM      30.07F
MORRISTOWN     MOSUNNY   82  59  44 NW5       30.09F
JACKSBORO      SUNNY     82  55  39 VRB5      30.12F
$$

TNZ083-085-099-290000-
SOUTHEAST TENNESSEE

CITY           SKY/WX    TMP DP  RH WIND       PRES   REMARKS
CHATTANOOGA    MOSUNNY   85  55  35 SE5       30.07F
DAYTON         CLEAR     84  59  42 SE5       30.07S
$$

SKY/WX REPORTED AS FAIR MEANS FEW OR NO CLOUDS BELOW
12 THOUSAND FEET.





USA.gov is the U.S. government's official web portal to all federal, state and local government web resources and services.